This is the latest recevied weather packets stored in our database for station/object W2OBX. If no packets are shown the sender has not sent any weather packets the latest 10 day(s).
| Time | Temp. | Humidity | Pressure | Rain* | Wind** | Luminosity | Snow |
|---|---|---|---|---|---|---|---|
| 1777911930 | 20° C | 50% | 1017 hPa | 0 mm | - | 57 W/m² | - |
| 1777911626 | 20° C | 50% | 1017 hPa | 0 mm | - | 54 W/m² | - |
| 1777911322 | 20° C | 50% | 1017.1 hPa | 0 mm | - | 55 W/m² | - |
| 1777911020 | 20° C | 50% | 1017.2 hPa | 0 mm | - | 59 W/m² | - |
| 1777910718 | 19.44° C | 51% | 1017.2 hPa | 0 mm | - | 60 W/m² | - |
| 1777910414 | 19.44° C | 50% | 1017.5 hPa | 0 mm | - | 55 W/m² | - |
| 1777910110 | 19.44° C | 52% | 1017.5 hPa | 0 mm | - | 52 W/m² | - |
| 1777909809 | 18.89° C | 56% | 1017.5 hPa | 0 mm | - | 54 W/m² | - |
| 1777909504 | 18.89° C | 53% | 1017.7 hPa | 0 mm | - | 56 W/m² | - |
| 1777909202 | 18.33° C | 54% | 1017.9 hPa | 0 mm | - | 53 W/m² | - |
| 1777908900 | 17.78° C | 60% | 1017.9 hPa | 0 mm | - | 55 W/m² | - |
| 1777908597 | 17.78° C | 61% | 1018 hPa | 0 mm | - | 64 W/m² | - |
| 1777908294 | 17.22° C | 60% | 1018 hPa | 0 mm | - | 67 W/m² | - |
| 1777907990 | 16.67° C | 60% | 1018.1 hPa | 0 mm | - | 64 W/m² | - |
| 1777907686 | 16.67° C | 60% | 1018 hPa | 0 mm | - | 62 W/m² | - |
| 1777907381 | 16.67° C | 66% | 1018.1 hPa | 0 mm | - | 70 W/m² | - |
| 1777907078 | 16.11° C | 68% | 1018.3 hPa | 0 mm | - | 73 W/m² | - |
| 1777906776 | 16.11° C | 67% | 1018.3 hPa | 0 mm | - | 74 W/m² | - |
| 1777906472 | 15.56° C | 66% | 1018.2 hPa | 0 mm | - | 71 W/m² | - |
| 1777906169 | 15.56° C | 68% | 1018.2 hPa | 0 mm | - | 55 W/m² | - |
| 1777905865 | 15° C | 71% | 1018.2 hPa | 0 mm | - | 46 W/m² | - |
| 1777905562 | 15° C | 67% | 1018.4 hPa | 0 mm | - | 49 W/m² | - |
| 1777905260 | 14.44° C | 72% | 1018.4 hPa | 0 mm | - | 50 W/m² | - |
| 1777904956 | 14.44° C | 73% | 1018.5 hPa | 0 mm | - | 50 W/m² | - |
| 1777904654 | 13.89° C | 75% | 1018.6 hPa | 0 mm | - | 50 W/m² | - |
* Rain latest hour (hover to see other rain measurements)
** Current wind speed in m/s (hover to see current wind gust speed)